Temperature
13 13 13 13 12 12 12 12 12 12 12 12 12 12 12 11 11 11 11 11 10 10 9 9 9 9 9 9 9 9 9 9 9 9 9 10 10 10 10 10 10 10 10
13 13 13 13 13 12 12 12 12 12 12 12 12 12 11 11 10 10 10 10 10 9 9 9 8 8 8 8 8 8 8 9 9 9 9 9 9 9 10 10 9 10 10
13 13 13 13 13 13 12 12 12 12 12 12 12 12 11 11 10 9 9 9 9 9 9 8 8 8 8 8 8 8 8 8 8 8 8 8 8 9 9 8 8 8 8
13 13 13 13 13 13 13 12 12 12 12 12 12 11 11 11 10 9 8 8 9 8 8 8 8 8 8 8 8 8 7 7 7 7 7 7 7 7 7 7 7 7 7
13 13 13 13 13 13 12 12 12 12 12 12 12 11 11 10 10 9 8 8 8 8 8 8 7 7 7 7 7 7 7 6 6 6 6 6 5 6 6 6 5 5 5
13 13 13 13 13 12 12 12 12 12 12 11 11 11 10 10 9 8 8 7 7 7 7 7 7 7 6 6 6 6 5 5 5 5 4 4 4 4 4 4 4 4 4
13 13 13 13 13 12 12 12 12 12 11 11 11 10 9 9 8 8 7 7 6 6 6 6 6 6 6 6 5 5 4 4 3 3 3 2 2 2 2 2 2 2 3
13 13 13 13 12 12 12 11 11 11 11 10 10 10 9 8 7 7 7 6 6 6 5 5 5 5 5 5 5 4 4 3 2 2 1 1 1 1 1 1 1 1 1
13 13 12 12 12 11 11 11 11 11 10 10 9 9 8 7 7 7 6 5 5 4 4 4 4 4 4 4 3 3 3 2 1 -0 -1 -1 -1 -0 -0 -0 0 0 0
12 12 12 12 11 11 11 10 10 10 10 9 9 8 7 6 6 6 5 5 4 3 3 3 3 3 2 2 2 1 1 -0 -1 -2 -2 -2 -2 -2 -1 -1 -1 -1 -0
12 12 11 11 11 10 10 10 10 9 9 8 8 7 6 5 4 3 4 4 4 3 3 2 2 2 1 0 -0 -1 -2 -2 -3 -3 -3 -3 -3 -2 -2 -2 -2 -1 -1
11 11 11 10 10 10 10 10 9 9 8 7 7 6 5 5 3 2 2 2 2 3 2 2 1 0 -0 -1 -1 -2 -3 -3 -4 -4 -4 -4 -3 -3 -3 -3 -3 -3 -2
11 11 10 10 9 9 9 9 9 8 7 7 6 5 5 4 3 2 1 1 0 1 1 1 -0 -1 -1 -2 -2 -3 -4 -4 -5 -5 -5 -4 -4 -4 -4 -4 -4 -4 -3
11 10 9 9 9 9 8 8 8 7 6 6 5 5 4 3 2 2 0 -1 -2 -2 -1 -1 -1 -2 -2 -3 -3 -4 -4 -5 -5 -5 -5 -5 -5 -5 -5 -5 -5 -4 -4
10 9 9 8 8 8 8 7 7 6 6 5 4 4 3 2 2 1 -0 -1 -3 -4 -4 -3 -3 -4 -4 -4 -5 -5 -5 -6 -6 -6 -6 -6 -6 -5 -5 -5 -5 -5 -5
9 8 8 8 8 7 7 6 6 5 5 4 3 3 2 2 1 0 -1 -2 -3 -4 -5 -5 -5 -5 -5 -6 -6 -6 -6 -6 -6 -6 -6 -6 -6 -6 -6 -5 -5 -5 -5
8 8 8 7 7 7 6 6 5 4 4 3 2 2 1 0 -0 -1 -2 -3 -4 -5 -6 -5 -6 -6 -6 -7 -6 -7 -7 -7 -7 -7 -7 -6 -6 -6 -6 -6 -6 -5 -5
7 7 7 7 6 6 5 5 4 3 3 2 2 1 0 -0 -1 -2 -3 -4 -5 -5 -6 -7 -7 -7 -7 -7 -7 -7 -7 -7 -7 -7 -7 -7 -7 -6 -6 -6 -6 -6 -5
7 7 6 6 5 5 4 4 3 2 2 1 1 0 -0 -1 -2 -3 -4 -5 -5 -6 -7 -8 -8 -8 -7 -7 -8 -7 -8 -8 -7 -8 -7 -7 -7 -7 -7 -6 -6 -6 -6
6 6 5 5 5 4 3 3 2 2 1 1 0 -0 -1 -2 -3 -4 -5 -6 -6 -7 -8 -8 -8 -8 -8 -8 -8 -8 -8 -8 -8 -8 -7 -7 -7 -7 -6 -6 -6 -6 -6
5 5 5 4 4 3 3 2 2 1 1 0 -0 -1 -2 -3 -4 -5 -6 -7 -7 -8 -8 -8 -8 -8 -8 -8 -8 -8 -9 -9 -8 -8 -8 -7 -7 -6 -6 -6 -6 -6 -6
5 4 4 3 3 2 2 1 1 1 0 -0 -1 -2 -3 -4 -5 -6 -7 -7 -8 -8 -8 -8 -8 -8 -8 -8 -9 -9 -9 -9 -9 -8 -8 -8 -7 -7 -6 -6 -6 -6 -6
4 4 3 3 2 2 1 1 0 -0 -1 -1 -2 -3 -4 -5 -6 -7 -7 -8 -8 -8 -9 -9 -9 -9 -9 -9 -9 -9 -9 -9 -9 -8 -9 -9 -7 -8 -7 -7 -6 -6 -6
3 3 2 2 1 1 0 -0 -1 -1 -2 -2 -3 -4 -5 -6 -7 -7 -8 -8 -8 -8 -8 -9 -9 -9 -9 -9 -9 -8 -8 -9 -8 -8 -8 -9 -8 -8 -7 -6 -6 -5 -5
2 2 1 1 0 0 -0 -1 -2 -2 -3 -3 -4 -5 -6 -7 -7 -8 -8 -8 -8 -8 -8 -8 -8 -8 -8 -8 -8 -9 -9 -9 -9 -9 -8 -9 -8 -9 -8 -6 -5 -5 -6
1 1 1 0 -0 -1 -2 -2 -3 -3 -4 -4 -5 -5 -6 -7 -8 -8 -9 -9 -9 -8 -8 -8 -8 -7 -7 -7 -7 -8 -9 -10 -10 -10 -8 -9 -9 -10 -10 -8 -6 -5 -5
Wind_Speed
4 4 4 6 6 7 6 3 4 5 4 6 6 6 4 5 6 11 12 14 12 11 11 11 11 12 12 12 12 12 13 13 14 14 14 15 15 15 16 16 16 16 16
5 4 4 4 5 7 6 5 5 3 4 4 4 4 4 5 6 11 13 12 11 10 9 10 11 11 12 12 13 13 13 14 14 15 15 15 16 16 16 16 17 17 17
8 6 5 5 5 8 8 7 5 5 3 3 2 3 3 4 3 6 11 12 10 8 7 8 9 11 12 13 13 13 14 14 14 15 16 16 17 17 17 18 18 18 18
12 8 6 5 8 9 7 4 4 3 4 4 3 3 2 2 2 5 7 9 9 6 4 5 8 10 11 13 14 14 14 14 15 15 16 17 18 18 19 19 19 20 20
14 9 5 6 9 6 5 5 5 4 4 4 3 1 1 1 2 2 3 7 7 3 1 3 6 9 11 13 14 14 14 14 15 16 17 18 19 20 21 21 21 22 22
14 11 6 7 9 6 5 5 5 4 3 3 4 1 1 2 1 2 1 3 6 4 1 3 5 8 11 14 15 15 14 15 16 17 18 20 21 22 22 23 23 24 24
14 10 7 7 6 6 6 6 4 5 3 4 3 2 1 1 2 3 2 0 1 3 1 3 5 7 9 13 15 15 16 16 17 19 20 21 22 24 24 25 25 26 26
13 11 8 7 7 7 7 6 4 3 2 4 3 2 3 2 2 2 2 2 1 0 1 4 6 8 9 11 13 15 16 18 20 21 22 24 25 26 26 27 27 27 28
12 12 10 8 7 7 6 6 5 4 2 2 4 3 2 1 4 3 2 1 1 1 2 4 6 8 10 12 12 13 16 19 20 22 25 26 27 28 28 28 28 28 29
11 12 12 10 8 7 7 6 5 4 3 2 1 2 2 2 0 4 4 3 2 3 4 4 6 9 11 12 12 15 18 19 22 25 27 28 29 29 29 29 29 29 29
9 11 12 10 9 7 7 7 5 4 3 3 2 1 1 0 2 2 5 5 5 4 5 5 6 9 11 11 12 13 18 21 25 27 29 30 30 30 30 30 30 30 30
8 9 11 9 8 7 7 6 5 6 5 3 2 1 1 0 1 1 3 4 5 5 6 6 6 7 10 11 11 16 20 24 27 29 30 31 31 31 31 31 31 31 31
9 9 10 9 8 7 6 6 6 5 4 2 1 0 1 0 1 1 3 5 5 5 5 5 4 7 10 9 10 19 22 26 28 30 31 32 32 32 32 32 31 31 31
10 10 10 10 9 8 7 6 5 4 3 2 2 1 1 2 1 1 2 4 6 4 4 6 6 7 9 13 18 25 20 27 30 31 32 33 33 32 32 32 31 31 31
12 12 12 11 9 7 7 6 4 3 3 2 1 0 1 2 2 2 2 2 4 6 6 5 4 5 13 16 20 21 20 26 31 32 33 33 33 32 32 32 32 32 31
13 13 12 11 9 7 6 5 4 3 1 1 2 2 3 2 2 2 3 4 5 7 10 4 6 8 10 17 24 23 22 30 31 32 32 32 32 32 33 33 33 32 32
14 13 12 10 9 7 6 4 3 3 2 3 3 3 4 3 3 3 3 4 5 6 13 11 6 7 9 11 14 19 22 21 22 28 31 32 32 32 33 33 33 32 32
13 12 11 10 8 7 5 3 2 2 2 3 4 3 4 3 4 4 4 5 5 6 10 15 9 7 10 11 12 12 15 19 18 26 30 31 32 32 32 32 32 32 32
13 11 10 9 8 6 4 2 1 1 3 4 4 4 5 4 5 5 5 5 6 8 7 11 13 9 9 11 12 13 13 10 17 23 26 28 30 31 32 32 33 33 32
12 10 9 8 7 5 3 2 2 3 4 5 5 5 5 5 6 5 6 7 7 8 8 10 12 11 11 10 10 10 12 8 11 16 21 25 28 30 31 33 33 33 32
12 10 9 8 6 4 3 4 4 4 5 6 6 6 5 8 10 10 8 7 7 7 8 10 13 13 12 10 10 9 14 12 11 12 11 12 13 13 16 25 28 30 31
10 9 8 6 5 4 4 3 4 4 6 7 7 6 7 8 12 15 17 17 16 12 11 11 13 14 15 12 10 11 13 16 16 6 8 14 12 14 13 10 25 31 31
9 8 6 5 4 5 3 2 5 5 6 7 7 7 7 8 12 7 13 17 16 21 22 16 16 15 15 13 12 14 14 16 18 13 13 18 12 14 12 16 29 31 32
7 6 5 4 3 3 3 2 7 6 7 7 7 7 7 7 9 12 9 8 9 12 17 14 13 14 14 12 13 16 16 15 14 11 9 16 15 15 16 12 26 31 31
7 5 4 3 1 1 1 3 7 4 6 7 8 8 9 8 16 20 12 10 12 12 19 23 24 24 28 28 22 13 11 13 16 14 7 8 11 14 14 14 17 24 24
6 4 3 1 0 1 1 4 7 3 5 6 7 8 14 16 19 21 13 12 15 14 13 14 16 19 16 18 22 12 9 12 14 11 4 4 8 10 9 6 7 10 15
Wind_Direction
161 146 136 135 130 126 119 88 68 67 46 43 44 49 31 31 62 98 91 83 78 69 61 51 40 30 20 11 3 357 352 348 344 341 338 335 333 331 329 326 323 320 319
157 137 125 110 102 97 95 86 75 66 58 46 25 27 25 33 66 107 116 100 91 78 61 46 32 21 10 1 353 347 343 340 338 335 332 328 326 324 322 319 316 314 312
149 131 127 119 113 109 94 76 67 61 58 21 14 46 40 36 45 112 125 125 114 95 68 41 21 9 360 353 347 341 338 336 334 331 328 325 323 320 317 314 311 309 306
144 128 126 124 117 105 94 83 63 63 55 23 5 12 10 65 24 95 112 119 112 95 64 27 8 355 348 344 340 336 334 333 331 328 325 322 319 316 313 311 308 305 302
139 130 125 121 113 99 90 89 60 55 48 12 322 287 353 74 89 88 106 118 115 102 350 339 353 345 339 335 332 330 329 329 328 325 322 320 317 314 311 308 305 302 299
135 125 118 114 111 106 104 104 105 74 46 352 314 313 93 96 115 138 119 140 158 183 237 348 356 350 339 330 327 324 325 325 324 322 320 318 315 312 309 305 302 299 297
126 123 118 112 113 117 118 116 112 96 45 357 355 340 287 206 207 171 170 139 206 196 186 349 358 349 334 325 322 319 321 321 321 319 317 315 313 310 307 304 301 298 295
122 125 120 119 116 113 101 96 95 99 67 35 38 6 349 327 305 228 177 196 244 41 14 344 338 325 319 313 309 313 317 317 317 315 314 314 312 309 305 302 299 296 294
119 125 123 119 116 112 110 103 99 101 117 67 54 81 92 298 321 314 267 224 233 309 302 303 301 302 307 306 303 305 308 311 312 312 313 312 310 307 303 301 298 296 295
121 125 125 121 115 113 115 113 100 102 107 114 85 63 111 125 63 318 319 324 354 333 309 300 300 294 292 292 293 298 303 306 308 310 310 309 307 304 303 301 299 298 296
124 127 125 121 119 117 115 107 97 84 96 101 97 75 53 28 205 217 284 305 325 317 318 303 292 285 280 280 280 289 300 306 307 307 306 305 304 303 303 302 301 300 298
128 126 124 121 117 118 119 115 108 88 83 85 73 81 115 159 315 277 278 301 299 292 302 287 280 277 278 281 288 301 306 306 305 304 304 303 303 303 303 303 301 299 297
142 138 131 124 119 118 116 108 101 100 96 95 63 45 52 293 264 262 278 290 295 299 288 282 297 314 311 320 321 314 309 306 305 304 303 302 303 304 303 301 299 297 295
143 137 130 122 122 124 122 115 117 131 138 183 226 188 239 266 266 251 260 294 304 292 283 295 310 302 326 329 318 313 309 306 304 303 302 303 303 302 301 299 298 296 295
140 135 129 127 128 128 125 125 135 160 171 203 206 236 262 259 250 251 254 250 267 291 295 278 289 327 325 313 310 308 302 304 304 302 303 302 301 300 300 299 298 296 294
136 133 130 128 126 124 128 137 144 148 161 228 196 237 264 264 269 266 262 261 253 271 284 278 295 298 306 308 306 306 302 302 302 301 299 300 300 300 299 299 298 296 294
134 133 131 130 130 132 137 142 155 157 208 259 258 247 259 266 268 270 270 268 265 268 283 290 283 294 298 295 297 295 295 293 293 298 300 300 300 301 300 299 297 296 294
131 129 128 127 127 126 127 134 153 172 235 260 272 277 279 284 282 277 273 271 274 275 285 296 299 297 293 293 293 291 299 299 297 300 301 302 302 301 300 299 298 297 296
122 119 117 117 117 114 109 92 68 321 291 280 274 270 271 278 279 277 282 284 284 291 287 296 300 298 294 294 294 294 293 292 297 301 302 301 300 299 299 300 300 300 298
117 113 109 108 110 112 108 73 20 329 307 298 288 277 269 264 265 271 282 277 281 284 287 292 296 297 294 290 290 298 300 289 294 299 297 296 296 299 299 299 298 297 296
112 109 108 109 113 119 97 59 8 334 324 313 304 294 287 288 291 291 288 279 285 285 289 293 295 297 297 299 298 298 301 301 292 287 287 289 293 291 292 293 294 293 293
108 108 113 121 126 114 97 42 346 328 318 309 302 299 298 295 297 301 304 304 302 301 301 296 297 296 297 295 295 297 300 301 300 277 288 296 292 290 288 284 290 294 296
113 114 116 118 116 122 112 9 332 325 305 295 294 295 299 300 307 294 294 299 299 299 298 296 294 293 293 292 292 293 292 290 292 294 298 296 293 291 289 291 295 296 297
117 117 115 111 113 145 136 350 333 330 306 300 300 298 296 294 298 301 291 292 284 291 291 292 285 285 289 289 284 288 290 290 287 284 279 289 294 293 294 289 294 293 294
111 109 107 104 92 137 156 340 336 320 306 307 309 314 316 303 305 310 313 303 297 294 299 298 297 298 299 300 301 300 297 298 297 295 283 277 289 298 295 288 286 290 294
107 110 117 135 167 235 288 325 329 310 309 309 308 308 312 311 310 314 312 303 303 302 299 299 299 299 295 294 299 296 294 297 297 298 277 280 295 310 301 266 267 287 293
Height
1522 1523 1525 1526 1527 1527 1528 1529 1529 1529 1529 1528 1528 1527 1526 1525 1524 1522 1522 1521 1520 1520 1519 1518 1518 1517 1516 1516 1515 1514 1513 1512 1511 1510 1509 1508 1507 1506 1505 1505 1505 1504 1504
1520 1522 1523 1524 1525 1526 1527 1527 1527 1527 1527 1526 1526 1525 1524 1523 1522 1520 1519 1518 1518 1517 1517 1516 1516 1515 1514 1513 1512 1511 1510 1508 1507 1506 1504 1503 1502 1501 1500 1499 1499 1498 1498
1518 1520 1521 1522 1523 1524 1525 1525 1525 1525 1525 1524 1523 1522 1522 1521 1520 1518 1516 1515 1515 1515 1515 1514 1513 1512 1511 1510 1509 1507 1506 1504 1503 1501 1500 1498 1497 1496 1495 1494 1493 1492 1491
1515 1516 1518 1520 1521 1522 1523 1523 1523 1523 1523 1522 1521 1520 1519 1518 1517 1516 1515 1513 1513 1512 1512 1512 1511 1509 1508 1507 1505 1504 1502 1500 1498 1496 1495 1493 1492 1490 1489 1488 1487 1486 1485
1511 1513 1515 1516 1518 1519 1520 1521 1521 1521 1521 1520 1519 1517 1516 1515 1514 1514 1513 1512 1511 1511 1510 1508 1507 1506 1504 1503 1501 1499 1497 1495 1493 1491 1489 1488 1486 1484 1483 1481 1480 1479 1478
1508 1510 1512 1513 1515 1516 1517 1518 1519 1519 1518 1517 1516 1515 1514 1513 1512 1511 1511 1510 1509 1508 1507 1505 1504 1502 1501 1499 1497 1495 1492 1490 1488 1486 1484 1482 1480 1478 1476 1475 1473 1472 1471
1504 1506 1508 1510 1512 1514 1515 1516 1516 1516 1516 1515 1514 1512 1511 1511 1510 1509 1508 1508 1507 1505 1504 1503 1501 1499 1497 1495 1492 1490 1487 1485 1483 1480 1478 1476 1473 1471 1469 1468 1466 1464 1463
1499 1502 1505 1507 1509 1510 1512 1513 1513 1513 1513 1512 1512 1510 1509 1509 1507 1507 1506 1505 1504 1503 1501 1500 1498 1495 1493 1490 1487 1484 1482 1479 1477 1474 1472 1469 1467 1464 1462 1460 1458 1457 1455
1495 1498 1501 1504 1506 1507 1509 1510 1511 1510 1510 1510 1509 1509 1508 1506 1506 1505 1503 1502 1501 1499 1498 1496 1493 1490 1488 1485 1482 1479 1476 1473 1470 1468 1465 1462 1459 1457 1455 1452 1451 1449 1447
1491 1494 1498 1500 1502 1505 1506 1507 1508 1507 1507 1507 1506 1505 1506 1505 1504 1501 1500 1499 1497 1495 1493 1491 1488 1485 1482 1479 1477 1474 1471 1467 1464 1462 1458 1455 1452 1449 1447 1445 1442 1440 1438
1487 1490 1494 1497 1499 1501 1503 1504 1505 1505 1505 1504 1503 1503 1502 1501 1500 1498 1495 1494 1492 1491 1488 1486 1483 1480 1477 1474 1471 1468 1465 1462 1459 1455 1451 1448 1445 1442 1439 1436 1434 1431 1429
1482 1486 1489 1493 1496 1498 1500 1501 1502 1502 1502 1502 1501 1500 1499 1498 1496 1495 1492 1488 1485 1483 1481 1480 1477 1474 1472 1469 1465 1462 1459 1455 1451 1448 1444 1440 1437 1434 1431 1427 1424 1422 1419
1476 1481 1485 1489 1492 1495 1497 1498 1499 1499 1499 1499 1498 1497 1495 1494 1493 1491 1488 1484 1480 1476 1474 1473 1472 1470 1467 1464 1460 1457 1452 1448 1444 1440 1436 1432 1429 1425 1422 1418 1415 1412 1410
1473 1478 1482 1486 1490 1492 1494 1495 1496 1496 1496 1495 1494 1493 1492 1491 1489 1487 1485 1481 1475 1470 1468 1467 1465 1463 1461 1457 1454 1449 1444 1440 1436 1432 1428 1424 1420 1416 1412 1409 1406 1403 1400
1470 1475 1479 1483 1487 1489 1491 1492 1493 1493 1493 1492 1491 1490 1488 1486 1485 1483 1481 1478 1476 1467 1461 1459 1458 1457 1454 1450 1446 1441 1437 1432 1428 1424 1420 1416 1412 1408 1404 1400 1397 1394 1391
1467 1472 1477 1481 1484 1487 1489 1489 1490 1490 1489 1488 1487 1486 1484 1482 1480 1478 1476 1474 1471 1466 1459 1453 1452 1450 1447 1443 1439 1434 1429 1425 1421 1416 1412 1408 1404 1400 1396 1392 1388 1384 1381
1466 1471 1475 1479 1482 1485 1486 1487 1487 1486 1486 1485 1483 1481 1480 1478 1475 1473 1470 1468 1465 1462 1454 1447 1446 1443 1439 1435 1431 1427 1422 1417 1413 1409 1405 1401 1396 1392 1387 1383 1379 1375 1372
1465 1470 1474 1477 1480 1482 1484 1484 1484 1483 1482 1481 1479 1477 1475 1473 1470 1468 1465 1462 1459 1456 1451 1442 1438 1436 1432 1428 1423 1419 1415 1411 1406 1401 1397 1393 1388 1383 1379 1375 1371 1367 1363
1464 1469 1473 1476 1478 1480 1481 1481 1481 1480 1479 1477 1475 1473 1470 1468 1465 1462 1459 1456 1453 1449 1445 1439 1432 1429 1425 1421 1417 1412 1408 1403 1399 1394 1389 1384 1379 1374 1370 1366 1361 1357 1353
1464 1468 1472 1475 1477 1478 1478 1478 1478 1476 1475 1473 1471 1468 1465 1462 1459 1456 1453 1450 1446 1443 1439 1434 1427 1422 1418 1415 1411 1405 1398 1394 1389 1385 1380 1375 1370 1366 1361 1356 1351 1346 1342
1464 1468 1471 1473 1475 1475 1476 1475 1474 1472 1470 1468 1466 1463 1460 1457 1454 1451 1448 1445 1442 1437 1433 1428 1422 1417 1412 1408 1405 1399 1393 1386 1380 1376 1370 1365 1361 1355 1350 1346 1341 1336 1333
1464 1467 1470 1471 1472 1473 1473 1471 1470 1468 1466 1463 1461 1458 1455 1452 1449 1446 1443 1440 1437 1433 1428 1423 1417 1412 1406 1403 1398 1393 1387 1380 1371 1368 1363 1356 1353 1346 1341 1337 1332 1328 1325
1464 1466 1468 1469 1470 1470 1469 1468 1466 1464 1461 1459 1455 1452 1449 1446 1443 1439 1436 1433 1430 1427 1424 1419 1412 1406 1401 1396 1392 1386 1381 1375 1367 1361 1357 1347 1343 1337 1333 1328 1324 1320 1315
1463 1465 1467 1467 1468 1467 1466 1464 1462 1459 1457 1454 1451 1447 1444 1440 1437 1434 1430 1426 1423 1419 1416 1411 1406 1400 1396 1391 1386 1381 1375 1368 1360 1355 1352 1342 1334 1328 1323 1318 1314 1310 1306
1462 1464 1465 1465 1465 1464 1462 1460 1457 1454 1451 1449 1446 1442 1439 1435 1432 1429 1425 1419 1414 1410 1407 1403 1399 1394 1389 1384 1380 1375 1368 1362 1353 1346 1344 1337 1327 1320 1311 1306 1303 1300 1296
1462 1463 1463 1463 1462 1461 1459 1456 1453 1450 1446 1443 1440 1437 1434 1430 1427 1423 1419 1414 1408 1403 1399 1394 1390 1386 1381 1377 1373 1369 1363 1356 1348 1339 1334 1330 1322 1316 1302 1293 1292 1290 1286